RYR899 LICC-LIPZ

Flight info

Callsign RYR899
Flight time 1h 32m
Altitude 36000
Route BUDIN DCT NAXES DCT TEA DCT LANLI/N0390F180 L612 ARDAM Z456 OTGIG
Aircraft B738/M-SDE2E3FGHIRWXY/LB1

Departure

Time 2026-04-30 07:52
Airport Catania-Fontanarossa Airport (LICC)

Arrival

Time 2026-04-30 09:24
Airport Venice Marco Polo Airport (LIPZ)
Time Latitude Longitude Altitude Speed Heading
2026-04-30 07:25 37.46919 15.06682 23 ft 0 kts 353°
2026-04-30 07:26 37.46919 15.06683 23 ft 0 kts 353°
2026-04-30 07:42 37.46911 15.06684 21 ft 3 kts 353°
2026-04-30 07:43 37.46900 15.06685 21 ft 3 kts 354°
2026-04-30 07:43 37.46877 15.06688 23 ft 3 kts 354°
2026-04-30 07:43 37.46860 15.06690 21 ft 1 kts 354°
2026-04-30 07:43 37.46858 15.06691 21 ft 1 kts 354°
2026-04-30 07:45 37.46859 15.06691 21 ft 0 kts 355°
2026-04-30 07:45 37.46860 15.06692 21 ft 0 kts
2026-04-30 07:45 37.46861 15.06693 21 ft 0 kts 26°
2026-04-30 07:46 37.46861 15.06695 21 ft 0 kts 42°
2026-04-30 07:46 37.46861 15.06696 21 ft 0 kts 56°
2026-04-30 07:46 37.46860 15.06699 24 ft 1 kts 85°
2026-04-30 07:46 37.46852 15.06717 21 ft 6 kts 104°
2026-04-30 07:47 37.46857 15.06798 21 ft 11 kts 86°
2026-04-30 07:47 37.46865 15.06895 22 ft 11 kts 84°
2026-04-30 07:47 37.46873 15.06989 21 ft 11 kts 84°
2026-04-30 07:47 37.46880 15.07069 23 ft 10 kts 83°
2026-04-30 07:48 37.46887 15.07158 21 ft 10 kts 84°
2026-04-30 07:48 37.46894 15.07245 22 ft 10 kts 84°
2026-04-30 07:48 37.46902 15.07329 21 ft 10 kts 84°
2026-04-30 07:48 37.46908 15.07411 22 ft 9 kts 84°
2026-04-30 07:49 37.46915 15.07491 21 ft 9 kts 84°
2026-04-30 07:49 37.46922 15.07569 21 ft 9 kts 84°
2026-04-30 07:49 37.46928 15.07644 21 ft 9 kts 84°
2026-04-30 07:49 37.46934 15.07717 21 ft 8 kts 84°
2026-04-30 07:50 37.46940 15.07788 21 ft 8 kts 84°
2026-04-30 07:50 37.46947 15.07864 21 ft 10 kts 84°
2026-04-30 07:50 37.46954 15.07955 21 ft 11 kts 84°
2026-04-30 07:50 37.46951 15.08050 23 ft 11 kts 114°
2026-04-30 07:51 37.46876 15.08088 21 ft 15 kts 173°
2026-04-30 07:51 37.46799 15.08053 21 ft 9 kts 246°
2026-04-30 07:51 37.46777 15.07811 22 ft 62 kts 264°
2026-04-30 07:51 37.46705 15.06954 22 ft 132 kts 264°
2026-04-30 07:52 37.46600 15.05621 309 ft 164 kts 264°
2026-04-30 07:52 37.46489 15.04155 1082 ft 167 kts 264°
2026-04-30 07:52 37.46443 15.03210 1739 ft 162 kts 268°
2026-04-30 07:52 37.46557 15.01374 2698 ft 172 kts 280°
2026-04-30 07:53 37.46911 14.99879 3416 ft 181 kts 292°
2026-04-30 07:53 37.47290 14.98952 4030 ft 180 kts 301°
2026-04-30 07:53 37.48430 14.97386 5036 ft 195 kts 321°
2026-04-30 07:53 37.49233 14.96714 5260 ft 217 kts 328°
2026-04-30 07:54 37.51385 14.95583 4988 ft 289 kts 343°
2026-04-30 07:54 37.53390 14.95022 5837 ft 289 kts 350°
2026-04-30 07:54 37.54670 14.94871 7118 ft 257 kts 358°
2026-04-30 07:54 37.56309 14.95091 8881 ft 224 kts 12°
2026-04-30 07:55 37.57781 14.95791 9437 ft 243 kts 26°
2026-04-30 07:55 37.59347 14.97115 9022 ft 301 kts 38°
2026-04-30 07:55 37.60945 14.99054 9242 ft 326 kts 47°
2026-04-30 07:55 37.62224 15.01253 10913 ft 289 kts 59°
2026-04-30 07:56 37.62951 15.03434 12625 ft 258 kts 75°
2026-04-30 07:56 37.63218 15.05707 13146 ft 276 kts 89°
2026-04-30 07:56 37.63064 15.08329 12641 ft 326 kts 102°
2026-04-30 07:56 37.62370 15.11219 12629 ft 354 kts 116°
2026-04-30 07:57 37.61133 15.13775 14033 ft 325 kts 133°
2026-04-30 07:57 37.59558 15.15554 15644 ft 289 kts 152°
2026-04-30 07:57 37.57741 15.16538 16378 ft 288 kts 171°
2026-04-30 07:57 37.55657 15.16783 16164 ft 318 kts 188°
2026-04-30 07:58 37.53403 15.16180 16017 ft 342 kts 205°
2026-04-30 07:58 37.51374 15.14714 16911 ft 327 kts 223°
2026-04-30 07:58 37.49973 15.12668 18483 ft 294 kts 243°
2026-04-30 07:58 37.49302 15.10358 19462 ft 283 kts 262°
2026-04-30 07:59 37.49319 15.07826 19619 ft 303 kts 281°
2026-04-30 07:59 37.50079 15.05209 19388 ft 336 kts 298°
2026-04-30 07:59 37.51592 15.02872 19657 ft 351 kts 317°
2026-04-30 08:00 37.55943 15.00750 21970 ft 333 kts 356°
2026-04-30 08:00 37.58248 15.01210 22621 ft 345 kts 15°
2026-04-30 08:00 37.60447 15.02647 22582 ft 373 kts 34°
2026-04-30 08:00 37.62350 15.05050 22467 ft 401 kts 52°
2026-04-30 08:01 37.63641 15.08191 22922 ft 409 kts 68°
2026-04-30 08:01 37.64943 15.11385 23051 ft 418 kts 48°
2026-04-30 08:01 37.67139 15.13782 23168 ft 423 kts 26°
2026-04-30 08:01 37.69925 15.14973 23273 ft 426 kts
2026-04-30 08:02 37.75641 15.13298 23462 ft 434 kts 329°
2026-04-30 08:02 37.78244 15.11297 23567 ft 442 kts 325°
2026-04-30 08:03 37.83655 15.07409 24126 ft 451 kts 333°
2026-04-30 08:03 37.89583 15.04679 24829 ft 456 kts 341°
2026-04-30 08:03 37.92668 15.03638 25105 ft 460 kts 343°
2026-04-30 08:04 37.95782 15.02710 25418 ft 462 kts 344°
2026-04-30 08:04 37.98928 15.01828 25716 ft 464 kts 345°
2026-04-30 08:04 38.02086 15.00958 26005 ft 466 kts 345°
2026-04-30 08:04 38.05264 15.00079 26288 ft 468 kts 345°
2026-04-30 08:05 38.08450 14.99187 26564 ft 470 kts 345°
2026-04-30 08:05 38.11642 14.98282 26864 ft 471 kts 344°
2026-04-30 08:05 38.14798 14.97379 27248 ft 470 kts 344°
2026-04-30 08:05 38.17985 14.96462 27660 ft 468 kts 344°
2026-04-30 08:06 38.21153 14.95547 28060 ft 467 kts 344°
2026-04-30 08:06 38.24325 14.94629 28415 ft 467 kts 344°
2026-04-30 08:06 38.27491 14.93711 28761 ft 467 kts 344°
2026-04-30 08:06 38.30658 14.92793 29136 ft 467 kts 344°
2026-04-30 08:07 38.33818 14.91876 29529 ft 466 kts 344°
2026-04-30 08:07 38.36981 14.90958 29918 ft 465 kts 344°
2026-04-30 08:07 38.40136 14.90042 30251 ft 465 kts 344°
2026-04-30 08:07 38.43289 14.89125 30579 ft 464 kts 344°
2026-04-30 08:08 38.46433 14.88210 30947 ft 462 kts 344°
2026-04-30 08:08 38.49565 14.87299 31315 ft 460 kts 344°
2026-04-30 08:08 38.52686 14.86389 31661 ft 459 kts 343°
2026-04-30 08:08 38.55798 14.85481 31970 ft 458 kts 344°
2026-04-30 08:09 38.58903 14.84575 32295 ft 457 kts 343°
2026-04-30 08:09 38.61997 14.83671 32643 ft 456 kts 343°
2026-04-30 08:09 38.65086 14.82767 32981 ft 454 kts 343°
2026-04-30 08:09 38.68169 14.81864 33280 ft 454 kts 343°
2026-04-30 08:10 38.71240 14.80964 33588 ft 453 kts 343°
2026-04-30 08:10 38.74310 14.80064 33904 ft 452 kts 343°
2026-04-30 08:10 38.77365 14.79167 34200 ft 451 kts 343°
2026-04-30 08:10 38.80423 14.78268 34442 ft 450 kts 343°
2026-04-30 08:11 38.83477 14.77370 34671 ft 450 kts 343°
2026-04-30 08:11 38.86487 14.76484 34934 ft 449 kts 343°
2026-04-30 08:11 38.89525 14.75590 35193 ft 447 kts 343°
2026-04-30 08:11 38.92557 14.74696 35457 ft 446 kts 343°
2026-04-30 08:12 38.95578 14.73805 35692 ft 445 kts 343°
2026-04-30 08:12 38.98598 14.72912 35925 ft 445 kts 343°
2026-04-30 08:12 39.01615 14.72020 36081 ft 445 kts 343°
2026-04-30 08:13 39.07676 14.70224 36073 ft 446 kts 343°
2026-04-30 08:13 39.13705 14.68438 36078 ft 443 kts 343°
2026-04-30 08:14 39.19697 14.66659 36080 ft 441 kts 343°
2026-04-30 08:14 39.25659 14.64885 36082 ft 439 kts 343°
2026-04-30 08:15 39.31608 14.63111 36090 ft 439 kts 343°
2026-04-30 08:15 39.37560 14.61332 36087 ft 439 kts 343°
2026-04-30 08:16 39.43522 14.59548 36090 ft 441 kts 343°
2026-04-30 08:16 39.49513 14.57753 36095 ft 442 kts 343°
2026-04-30 08:17 39.55520 14.55950 36087 ft 443 kts 343°
2026-04-30 08:17 39.61541 14.54139 36084 ft 444 kts 343°
2026-04-30 08:18 39.67536 14.52333 36086 ft 445 kts 343°
2026-04-30 08:18 39.73569 14.50512 36095 ft 445 kts 343°
2026-04-30 08:19 39.79602 14.48688 36089 ft 445 kts 343°
2026-04-30 08:19 39.85633 14.46862 36097 ft 444 kts 343°
2026-04-30 08:20 39.91635 14.44998 36092 ft 443 kts 342°
2026-04-30 08:20 39.97598 14.42969 36099 ft 442 kts 342°
2026-04-30 08:21 40.03545 14.40912 36099 ft 442 kts 342°
2026-04-30 08:21 40.09488 14.38871 36099 ft 441 kts 342°
2026-04-30 08:22 40.15424 14.36841 36095 ft 441 kts 342°
2026-04-30 08:22 40.21356 14.34813 36098 ft 440 kts 342°
2026-04-30 08:23 40.27281 14.32784 36100 ft 439 kts 342°
2026-04-30 08:23 40.33142 14.30773 36100 ft 439 kts 342°
2026-04-30 08:24 40.39047 14.28743 36095 ft 438 kts 342°
2026-04-30 08:24 40.44946 14.26711 36098 ft 438 kts 342°
2026-04-30 08:25 40.50825 14.24682 36102 ft 437 kts 342°
2026-04-30 08:25 40.56709 14.22648 36097 ft 437 kts 342°
2026-04-30 08:26 40.62587 14.20612 36105 ft 436 kts 342°
2026-04-30 08:26 40.68453 14.18577 36104 ft 435 kts 342°
2026-04-30 08:27 40.74270 14.16555 36106 ft 435 kts 342°
2026-04-30 08:27 40.80120 14.14518 36100 ft 434 kts 342°
2026-04-30 08:28 40.85955 14.12482 36107 ft 434 kts 342°
2026-04-30 08:28 40.91795 14.10441 36102 ft 433 kts 342°
2026-04-30 08:29 40.97616 14.08403 36127 ft 433 kts 342°
2026-04-30 08:29 41.03434 14.06362 36135 ft 432 kts 341°
2026-04-30 08:30 41.09226 14.04327 36130 ft 433 kts 341°
2026-04-30 08:30 41.15046 14.02278 36132 ft 433 kts 341°
2026-04-30 08:31 41.20863 14.00225 36125 ft 433 kts 341°
2026-04-30 08:31 41.26704 13.98161 36127 ft 434 kts 341°
2026-04-30 08:32 41.32569 13.96162 36127 ft 437 kts 343°
2026-04-30 08:32 41.38372 13.94516 36113 ft 438 kts 344°
2026-04-30 08:33 41.44344 13.92880 36140 ft 439 kts 344°
2026-04-30 08:33 41.50325 13.91204 36144 ft 439 kts 344°
2026-04-30 08:34 41.56285 13.89503 36135 ft 439 kts 343°
2026-04-30 08:34 41.62253 13.87788 36149 ft 438 kts 343°
2026-04-30 08:35 41.68202 13.86074 36152 ft 437 kts 343°
2026-04-30 08:35 41.74133 13.84363 36164 ft 435 kts 343°
2026-04-30 08:36 41.80054 13.82651 36153 ft 434 kts 343°
2026-04-30 08:36 41.85949 13.80944 36165 ft 433 kts 343°
2026-04-30 08:37 41.91830 13.79238 36188 ft 432 kts 343°
2026-04-30 08:37 41.97700 13.77532 36199 ft 431 kts 343°
2026-04-30 08:38 42.03556 13.75826 36203 ft 431 kts 343°
2026-04-30 08:38 42.09410 13.74117 36204 ft 430 kts 342°
2026-04-30 08:39 42.15254 13.72409 36207 ft 430 kts 342°
2026-04-30 08:39 42.21103 13.70696 36216 ft 430 kts 342°
2026-04-30 08:40 42.25957 13.69272 36212 ft 429 kts 342°
2026-04-30 08:40 42.31804 13.67553 36213 ft 429 kts 342°
2026-04-30 08:41 42.37643 13.65834 36211 ft 429 kts 342°
2026-04-30 08:41 42.43449 13.64121 36228 ft 429 kts 342°
2026-04-30 08:42 42.49281 13.62397 36232 ft 430 kts 342°
2026-04-30 08:42 42.55125 13.60666 36234 ft 430 kts 342°
2026-04-30 08:43 42.61008 13.58921 36227 ft 430 kts 342°
2026-04-30 08:43 42.66850 13.57184 36235 ft 430 kts 342°
2026-04-30 08:44 42.72651 13.55456 36228 ft 429 kts 342°
2026-04-30 08:44 42.78477 13.53718 36240 ft 429 kts 342°
2026-04-30 08:45 42.84321 13.51970 36243 ft 428 kts 342°
2026-04-30 08:45 42.90138 13.50228 36243 ft 427 kts 342°
2026-04-30 08:46 42.95944 13.48486 36236 ft 426 kts 342°
2026-04-30 08:46 43.01731 13.46745 36242 ft 425 kts 342°
2026-04-30 08:47 43.07511 13.45004 36248 ft 425 kts 341°
2026-04-30 08:47 43.13275 13.43263 36241 ft 424 kts 341°
2026-04-30 08:48 43.18996 13.41533 36250 ft 423 kts 341°
2026-04-30 08:48 43.24746 13.39790 36239 ft 422 kts 341°
2026-04-30 08:49 43.30480 13.38049 36246 ft 422 kts 341°
2026-04-30 08:49 43.36207 13.36306 36250 ft 421 kts 341°
2026-04-30 08:50 43.41927 13.34562 36249 ft 421 kts 341°
2026-04-30 08:50 43.47643 13.32816 36250 ft 421 kts 341°
2026-04-30 08:51 43.53078 13.31153 36252 ft 421 kts 341°
2026-04-30 08:51 43.58769 13.29408 36240 ft 421 kts 341°
2026-04-30 08:52 43.64479 13.27654 36242 ft 421 kts 341°
2026-04-30 08:52 43.70204 13.25892 36236 ft 421 kts 341°
2026-04-30 08:53 43.75914 13.24131 36246 ft 421 kts 341°
2026-04-30 08:53 43.81642 13.22360 36251 ft 421 kts 342°
2026-04-30 08:54 43.87372 13.20585 36254 ft 422 kts 342°
2026-04-30 08:54 43.93098 13.18806 36261 ft 422 kts 341°
2026-04-30 08:55 43.98501 13.15919 36260 ft 413 kts 327°
2026-04-30 08:55 44.03486 13.11918 36262 ft 415 kts 326°
2026-04-30 08:56 44.08490 13.07890 36271 ft 417 kts 327°
2026-04-30 08:56 44.13534 13.03865 36276 ft 419 kts 327°
2026-04-30 08:56 44.16081 13.01836 35798 ft 427 kts 327°
2026-04-30 08:57 44.18650 12.99791 35294 ft 421 kts 327°
2026-04-30 08:57 44.21193 12.97766 34575 ft 422 kts 326°
2026-04-30 08:57 44.23740 12.95733 33771 ft 423 kts 326°
2026-04-30 08:57 44.26297 12.93689 32992 ft 422 kts 326°
2026-04-30 08:58 44.28836 12.91659 32245 ft 421 kts 326°
2026-04-30 08:58 44.31379 12.89623 31483 ft 422 kts 327°
2026-04-30 08:58 44.33927 12.87582 30701 ft 422 kts 327°
2026-04-30 08:58 44.36476 12.85545 29871 ft 422 kts 327°
2026-04-30 08:59 44.39028 12.83511 28962 ft 422 kts 327°
2026-04-30 08:59 44.41571 12.81484 28069 ft 421 kts 328°
2026-04-30 08:59 44.44122 12.79450 27127 ft 422 kts 328°
2026-04-30 08:59 44.46676 12.77408 26184 ft 424 kts 329°
2026-04-30 09:00 44.49236 12.75361 25493 ft 420 kts 329°
2026-04-30 09:00 44.51759 12.73340 24813 ft 417 kts 329°
2026-04-30 09:00 44.54142 12.71430 24182 ft 413 kts 329°
2026-04-30 09:00 44.56642 12.69417 23173 ft 416 kts 330°
2026-04-30 09:01 44.59135 12.67400 22425 ft 411 kts 330°
2026-04-30 09:01 44.61601 12.65401 21731 ft 407 kts 330°
2026-04-30 09:01 44.64008 12.63448 21056 ft 402 kts 330°
2026-04-30 09:01 44.66417 12.61493 20409 ft 398 kts 330°
2026-04-30 09:02 44.71168 12.57632 19131 ft 391 kts 331°
2026-04-30 09:02 44.73512 12.55726 18491 ft 388 kts 331°
2026-04-30 09:02 44.75844 12.53827 17785 ft 386 kts 331°
2026-04-30 09:03 44.78060 12.51713 17083 ft 387 kts 321°
2026-04-30 09:03 44.79935 12.48981 16409 ft 389 kts 311°
2026-04-30 09:03 44.81436 12.45798 15660 ft 393 kts 299°
2026-04-30 09:03 44.82585 12.42287 15009 ft 397 kts 296°
2026-04-30 09:04 44.83703 12.38698 14325 ft 402 kts 296°
2026-04-30 09:04 44.84825 12.35093 13587 ft 401 kts 297°
2026-04-30 09:04 44.85949 12.31523 12904 ft 396 kts 296°
2026-04-30 09:04 44.87075 12.28000 12264 ft 392 kts 297°
2026-04-30 09:05 44.88189 12.24520 11734 ft 385 kts 297°
2026-04-30 09:05 44.89275 12.21167 11592 ft 367 kts 300°
2026-04-30 09:05 44.90714 12.18312 11429 ft 348 kts 317°
2026-04-30 09:05 44.92542 12.16205 11283 ft 332 kts 330°
2026-04-30 09:06 44.94576 12.14834 11152 ft 317 kts 341°
2026-04-30 09:06 44.96596 12.13709 11025 ft 306 kts 341°
2026-04-30 09:06 44.98541 12.12614 10896 ft 297 kts 340°
2026-04-30 09:06 45.00459 12.11706 10767 ft 285 kts 353°
2026-04-30 09:07 45.02391 12.11493 10676 ft 274 kts 359°
2026-04-30 09:07 45.04267 12.11354 10553 ft 266 kts 359°
2026-04-30 09:07 45.06077 12.11031 10430 ft 261 kts 342°
2026-04-30 09:07 45.07652 12.09781 10207 ft 263 kts 323°
2026-04-30 09:08 45.08958 12.07941 9934 ft 265 kts 315°
2026-04-30 09:08 45.10132 12.05985 9644 ft 266 kts 306°
2026-04-30 09:08 45.10755 12.03466 9365 ft 274 kts 277°
2026-04-30 09:08 45.10475 12.00844 9239 ft 273 kts 249°
2026-04-30 09:09 45.09405 11.98679 9234 ft 268 kts 224°
2026-04-30 09:09 45.08023 11.96928 9244 ft 265 kts 222°
2026-04-30 09:09 45.06619 11.95185 9233 ft 273 kts 222°
2026-04-30 09:09 45.05157 11.93379 9253 ft 284 kts 222°
2026-04-30 09:10 45.03657 11.91512 9253 ft 287 kts 222°
2026-04-30 09:10 45.02300 11.89491 9222 ft 280 kts 241°
2026-04-30 09:10 45.01749 11.87435 9223 ft 264 kts 264°
2026-04-30 09:10 45.01828 11.84923 9077 ft 251 kts 288°
2026-04-30 09:11 45.02480 11.82700 8889 ft 242 kts 308°
2026-04-30 09:11 45.03539 11.80897 8701 ft 234 kts 322°
2026-04-30 09:11 45.04927 11.79860 8509 ft 222 kts 353°
2026-04-30 09:11 45.06428 11.79947 8339 ft 213 kts 18°
2026-04-30 09:12 45.07719 11.80854 8171 ft 211 kts 37°
2026-04-30 09:12 45.08843 11.82198 8015 ft 213 kts 41°
2026-04-30 09:12 45.09946 11.83605 7827 ft 214 kts 41°
2026-04-30 09:12 45.11052 11.85010 7659 ft 214 kts 41°
2026-04-30 09:13 45.12162 11.86426 7478 ft 215 kts 41°
2026-04-30 09:13 45.13281 11.87846 7294 ft 217 kts 41°
2026-04-30 09:13 45.14414 11.89276 7116 ft 218 kts 41°
2026-04-30 09:13 45.15548 11.90704 6939 ft 218 kts 41°
2026-04-30 09:14 45.16679 11.92128 6759 ft 217 kts 42°
2026-04-30 09:14 45.17809 11.93553 6422 ft 221 kts 42°
2026-04-30 09:14 45.18955 11.94996 6110 ft 225 kts 42°
2026-04-30 09:14 45.20119 11.96460 5894 ft 220 kts 43°
2026-04-30 09:15 45.21237 11.97870 5701 ft 212 kts 43°
2026-04-30 09:15 45.22323 11.99238 5506 ft 206 kts 43°
2026-04-30 09:15 45.23380 12.00568 5327 ft 199 kts 43°
2026-04-30 09:15 45.24404 12.01860 5156 ft 194 kts 44°
2026-04-30 09:16 45.25404 12.03125 5011 ft 192 kts 44°
2026-04-30 09:16 45.26390 12.04370 4862 ft 188 kts 44°
2026-04-30 09:16 45.27360 12.05598 4676 ft 184 kts 44°
2026-04-30 09:16 45.28300 12.06788 4532 ft 180 kts 44°
2026-04-30 09:17 45.29230 12.07971 4397 ft 178 kts 44°
2026-04-30 09:17 45.29965 12.08904 4272 ft 175 kts 44°
2026-04-30 09:17 45.30863 12.10044 4134 ft 170 kts 45°
2026-04-30 09:17 45.31734 12.11150 3980 ft 165 kts 45°
2026-04-30 09:18 45.32570 12.12213 3855 ft 163 kts 45°
2026-04-30 09:18 45.33444 12.13298 3609 ft 167 kts 43°
2026-04-30 09:18 45.34322 12.14329 3447 ft 160 kts 44°
2026-04-30 09:18 45.35134 12.15337 3311 ft 150 kts 45°
2026-04-30 09:19 45.35921 12.16343 3260 ft 157 kts 46°
2026-04-30 09:19 45.36750 12.17412 3147 ft 162 kts 45°
2026-04-30 09:19 45.37601 12.18466 3086 ft 161 kts 44°
2026-04-30 09:19 45.38409 12.19519 2962 ft 155 kts 47°
2026-04-30 09:20 45.39189 12.20551 2760 ft 151 kts 46°
2026-04-30 09:20 45.39946 12.21536 2560 ft 144 kts 46°
2026-04-30 09:20 45.40686 12.22485 2377 ft 144 kts 47°
2026-04-30 09:20 45.41424 12.23448 2176 ft 142 kts 47°
2026-04-30 09:21 45.42160 12.24403 1975 ft 147 kts 47°
2026-04-30 09:21 45.42905 12.25363 1752 ft 141 kts 47°
2026-04-30 09:21 45.43613 12.26280 1559 ft 136 kts 47°
2026-04-30 09:21 45.44289 12.27150 1408 ft 135 kts 48°
2026-04-30 09:22 45.44980 12.28062 1217 ft 133 kts 48°
2026-04-30 09:22 45.45652 12.28919 1044 ft 131 kts 48°
2026-04-30 09:22 45.46337 12.29800 860 ft 136 kts 48°
2026-04-30 09:22 45.47038 12.30706 681 ft 137 kts 48°
2026-04-30 09:23 45.47746 12.31623 518 ft 137 kts 46°
2026-04-30 09:23 45.48450 12.32526 315 ft 135 kts 46°
2026-04-30 09:23 45.49142 12.33426 120 ft 134 kts 47°
2026-04-30 09:23 45.49826 12.34302 18 ft 127 kts 46°
2026-04-30 09:24 45.50407 12.35057 10 ft 94 kts 40°
2026-04-30 09:24 45.50745 12.35484 15 ft 42 kts 42°
2026-04-30 09:24 45.50827 12.35543 17 ft 8 kts
2026-04-30 09:24 45.50882 12.35554 17 ft 8 kts 12°
2026-04-30 09:25 45.50930 12.35567 16 ft 7 kts
2026-04-30 09:25 45.50976 12.35555 15 ft 7 kts 321°
2026-04-30 09:25 45.50979 12.35552 15 ft 0 kts 316°
2026-04-30 09:26 45.50985 12.35541 15 ft 5 kts 308°
2026-04-30 09:26 45.50994 12.35458 17 ft 12 kts 255°
2026-04-30 09:26 45.50970 12.35307 18 ft 19 kts 257°
2026-04-30 09:27 45.50899 12.35132 18 ft 21 kts 223°
2026-04-30 09:27 45.50788 12.34989 15 ft 22 kts 221°
2026-04-30 09:27 45.50677 12.34846 15 ft 21 kts 222°
2026-04-30 09:27 45.50605 12.34745 14 ft 7 kts 244°
2026-04-30 09:28 45.50603 12.34679 14 ft 7 kts 269°
2026-04-30 09:28 45.50601 12.34613 15 ft 7 kts 267°
2026-04-30 09:28 45.50599 12.34549 15 ft 6 kts 266°
2026-04-30 09:28 45.50597 12.34502 15 ft 6 kts 267°
2026-04-30 09:29 45.50593 12.34439 14 ft 6 kts 253°
2026-04-30 09:29 45.50566 12.34388 14 ft 6 kts 227°
2026-04-30 09:29 45.50552 12.34327 15 ft 6 kts 266°
2026-04-30 09:29 45.50550 12.34280 15 ft 4 kts 266°
2026-04-30 09:30 45.50549 12.34246 15 ft 3 kts 267°
2026-04-30 09:30 45.50548 12.34225 15 ft 1 kts 267°
2026-04-30 09:30 45.50548 12.34216 15 ft 1 kts 267°
2026-04-30 09:30 45.50548 12.34212 15 ft 0 kts 267°